Location: Unspecified
(46.0725°N, 13.7344°E)
Time: 07:08:22
(UTC+02:00)

ISS - Visible Passes

Search period start: 21 October 2019 00:00
Search period end: 30 October 2019 23:00
Orbit: 411 x 421 km, 51.6° (Epoch: 21 October)

Date Brightness Start Highest point End Pass type
(mag) Time Alt. Az. Time Alt. Az. Time Alt. Az.
22 Oct -0.3 06:51:43 10° SSE 06:52:38 11° SE 06:53:33 10° ESE visible
24 Oct -1.5 06:48:59 10° SSW 06:51:50 26° SE 06:54:42 10° E visible
25 Oct -0.9 06:01:12 10° S 06:03:25 16° SE 06:05:37 10° E visible
26 Oct -3.3 06:47:51 10° SW 06:51:10 62° SSE 06:54:30 10° ENE visible
27 Oct -2.5 05:00:46 20° SSW 05:02:37 38° SE 05:05:47 10° ENE visible
28 Oct -1.6 04:14:37 23° ESE 04:14:37 23° ESE 04:16:54 10° E visible
28 Oct -3.7 05:47:33 12° WSW 05:50:38 63° NNW 05:53:59 10° ENE visible
29 Oct -3.9 05:01:15 52° WSW 05:01:58 89° SSE 05:05:21 10° ENE visible
30 Oct -1.7 04:14:49 29° E 04:14:49 29° E 04:16:40 10° ENE visible
30 Oct -3.0 05:47:44 15° W 05:50:12 38° NNW 05:53:23 10° ENE visible
